Regional Weather Roundup
Issued by NWS

Home | Current Version | Previous Version | Text Only | Print | Product List | Glossary Off
Versions: 1 2 3 4 5 6 7 8 9 10 11 12 13 14 15 16 17 18 19 20 21 22 23 24 25 26 27 28 29 30 31 32 33 34 35 36 37 38 39 40 41 42 43 44 45 46 47 48 49 50

000
ASUS43 KFSD 302302
RWRSD

WEATHER ROUNDUP FOR SOUTH DAKOTA
NATIONAL WEATHER SERVICE SIOUX FALLS SD
600 PM CDT SAT JUL 30 2016

NOTE: "FAIR" INDICATES FEW OR NO CLOUDS BELOW 12,000 FEET WITH NO
SIGNIFICANT WEATHER AND/OR OBSTRUCTIONS TO VISIBILITY.


SDZ001>005-009-010-012>017-310000-
NORTHWEST AND NORTH CENTRAL SOUTH DAKOTA

CITY           SKY/WX    TMP DP  RH WIND       PRES   REMARKS
BUFFALO          N/A     92  51  24 VRB7      29.75F
FAITH            N/A     91  54  28 VRB7G26   29.81F
MOBRIDGE       MOSUNNY   90  57  32 S16G25    29.79F
$$

SDZ012>016-024>037-041>051-057-063-072>074-310000-
SOUTHWEST AND SOUTH CENTRAL SOUTH DAKOTA

CITY           SKY/WX    TMP DP  RH WIND       PRES   REMARKS
RAPID CTY ARPT CLOUDY    87  55  33 SE13      29.82S THUNDER
PIERRE         MOSUNNY   88  59  37 SE16      29.81F
CUSTER         SUNNY     83  45  26 SW10      29.99F
ELLSWORTH AFB  CLOUDY    90  51  26 SE7       29.81F
PHILIP         PTSUNNY   89  63  41 SE10      29.79F
PINE RIDGE     SUNNY     90  58  33 S17G24    29.85F
WINNER         FAIR      88  64  44 S15       29.87F
$$

SDZ004>011-016>023-039-040-310000-
NORTHEAST SOUTH DAKOTA

CITY           SKY/WX    TMP DP  RH WIND       PRES   REMARKS
ABERDEEN       SUNNY     83  59  44 SE14      29.89F
WATERTOWN      MOSUNNY   80  59  48 S13       29.95F
BROOKINGS      SUNNY     78  59  51 SE10      29.96F
SISSETON         N/A     79  60  52 S12G21    29.92F
$$

SDZ017-020-022-023-036>040-048>070-310000-
SOUTHEAST SOUTH DAKOTA

CITY           SKY/WX    TMP DP  RH WIND       PRES   REMARKS
SIOUX FALLS    MOSUNNY   79  57  46 SE8       29.95F
HURON          SUNNY     83  59  44 S12       29.89F
CHAMBERLAIN    MOSUNNY   87  68  53 SE14G20   29.87S
MITCHELL       PTSUNNY   82  62  50 SE15      29.91S
YANKTON        MOSUNNY   81  63  54 SE10      29.92S
$$

ABBREVIATIONS USED IN REMARKS
   TC - TEMPERATURE IN CELSIUS
  WCI - WIND CHILL INDEX
   HX - HEAT INDEX
  VSB - VISIBILITY




USA.gov is the U.S. government's official web portal to all federal, state and local government web resources and services.